User: anonymous   Login
Location: Kaltenbach
(49.2000°N, 7.7500°E)
Time: 01:59:45
(UTC+00:00)
Language:

Ariane Rocket - Orbit

View from above orbital plane
View from above orbital plane
View from above satellite
View from above satellite

Ground track
Ground track

The orbit data is extracted from the following two-line orbital elements,

1 23561U 95021B   20091.74003090  .00000015  00000-0  20151-4 0  9998
2 23561  98.7341 129.7015 0007964 121.1011 352.7062 14.37961467307620
Epoch (UTC): 31 March 2020 17:45:38
Eccentricity: 0.0007964
inclination: 98.7341°
perigee height: 759 km
apogee height: 771 km
right ascension of ascending node: 129.7015°
argument of perigee: 121.1011°
revolutions per day: 14.37961467
mean anomaly at epoch: 352.7062°
orbit number at epoch: 30762

The dashed part of the orbit path shows where the satellite is in the earth's shadow,  

DLR